CZ-8A R/B

Last updated on Fri Feb 13 2026 00:02:06 GMT+0000 (Coordinated Universal Time)

1 67444U 26007K 26043.59261847 .00000151 00000+0 15499-3 0 9994 2 67444 50.0096 170.5308 0092269 185.7954 174.1894 14.13554238 4237
UTC large
Height (km)
Speed (km/s)
/
Latitude / Longitude
Inclination (degrees)
Orbital Period (minutes)
Azimuth
Elevation
Range (km)
Doppler Factor

Next 0 passes for location: London (51.5072 / 0.1276)

Sorry there are no passes over London.